{"data":{"norad_id":65835,"intl_designator":"2025-221N","name":"STARLINK-35349","alt_names":[],"object_type":"PAYLOAD","status":"ACTIVE","operator":null,"country":"US","launch_date":"2025-09-29","launch_site_code":"AFWTR","launch_vehicle":null,"mission":null,"orbit_class":"UNKNOWN","rcs_meters":null,"size_class":null,"mass_kg":null,"dimensions":null,"purposes":["comms"],"wikipedia_slug":null,"has_3d_model":false,"image_url":null,"decayed_at":null,"tle_current":{"epoch":"2026-05-25T03:26:22.224192Z","epoch_age_seconds":69475,"freshness":"FRESH","line1":"1 65835U 25221N   26145.14331278  .00012029  00000+0  41752-3 0  9991","line2":"2 65835  53.1571  93.5882 0001080  81.3644 278.7479 15.30205931 36430","mean_motion":15.30205931,"eccentricity":0.000108,"inclination_deg":53.1571,"raan_deg":93.5882,"arg_perigee_deg":81.3644,"mean_anomaly_deg":278.7479,"bstar":0.00041752,"rev_number":3643,"period_min":94.104980958932,"perigee_km":474.45720046865,"apogee_km":475.93752069054,"semimajor_km":6853.3343605796,"source":"CELESTRAK","updated_at":"2026-05-25T13:38:20.944430Z"}}}